College Park, MD

4:13 PM EST on February 20, 2017 (GMT -0500)
College Park

Weather History for KCGS - March, 2014

Change the Weather History Date:

Monday, March 3, 2014

  Actual Average Record
Temperature  
Mean Temperature 22 °F -  
Max Temperature 36 °F 54 °F 78 °F (1972)
Min Temperature 9 °F 32 °F 9 °F (2014)
Degree Days  
Heating Degree Days 42    
Moisture  
Dew Point 16 °F    
Average Humidity 77    
Maximum Humidity 95    
Minimum Humidity 42    
Precipitation  
Precipitation 0.00 in - - ()
Sea Level Pressure  
Sea Level Pressure 30.21 in    
Wind  
Wind Speed 7 mph (North)    
Max Wind Speed 16 mph    
Max Gust Speed 24 mph    
Visibility 6 miles    
Events      
Averages and records for this station are not official NWS values.
T = Trace of Precipitation, MM = Missing Value Source: NWS Daily Summary

Daily Weather History Graph

Daily Weather History Graph

Search for Another Location

Airport or City:

Trip Planner

Search our weather history database for the weather conditions in past years. The results will help you decide how hot, cold, wet, or windy it might be!

Date:

Astronomy

Mar. 03, 2014 Rise Set
Actual Time 6:37 AM EST 6:02 PM EST
Civil Twilight 6:10 AM EST 6:29 PM EST
Nautical Twilight 5:39 AM EST 7:00 PM EST
Astronomical Twilight 5:08 AM EST 7:31 PM EST
Moon 7:45 AM EST (3/3) 9:01 PM EST (3/3)
Length of Visible Light 12h 18m
Length of Day
11h 25m
Waxing Crescent, 8% of the Moon is Illuminated
Mar 3
Waxing Crescent
Mar 8
First Quarter
Mar 16
Full
Mar 23
Last Quarter
Mar 30
New

Hourly Weather History & Observations

Time (EST) Temp. Windchill Dew Point Humidity Pressure Visibility Wind Dir Wind Speed Gust Speed Precip Events Conditions
12:10 AM 36.7 °F 34.1 °F 35.2 °F 95% 30.01 in 4.0 mi North 3.5 mph - N/A   Overcast
12:30 AM 36.0 °F 31.1 °F 34.2 °F 93% 30.01 in 5.0 mi North 5.8 mph - N/A   Overcast
12:50 AM 35.6 °F 29.9 °F 33.1 °F 91% 30.02 in 5.0 mi North 6.9 mph - N/A   Overcast
1:10 AM 35.1 °F 32.2 °F 33.1 °F 92% 30.03 in 5.0 mi North 3.5 mph - N/A   Overcast
1:30 AM 34.7 °F 30.6 °F 33.1 °F 94% 30.02 in 4.0 mi North 4.6 mph - N/A   Overcast
1:50 AM 34.7 °F 31.8 °F 33.3 °F 94% 30.02 in 3.0 mi North 3.5 mph - N/A   Overcast
2:10 AM 34.2 °F 28.2 °F 32.7 °F 94% 30.02 in 4.0 mi North 6.9 mph - N/A   Overcast
2:30 AM 34.0 °F 28.8 °F 32.2 °F 93% 30.02 in 3.0 mi North 5.8 mph - N/A   Overcast
2:50 AM 34.0 °F 26.6 °F 32.2 °F 93% 30.02 in 3.0 mi North 9.2 mph - N/A   Overcast
3:10 AM 33.8 °F 29.6 °F 32.0 °F 93% 30.02 in 4.0 mi North 4.6 mph - N/A   Overcast
3:30 AM 33.8 °F 27.0 °F 32.0 °F 93% 30.02 in 5.0 mi North 8.1 mph - N/A   Overcast
3:50 AM 32.9 °F 25.3 °F 30.9 °F 92% 30.03 in 4.0 mi North 9.2 mph - N/A   Overcast
4:10 AM 32.2 °F 25.0 °F 30.9 °F 95% 30.04 in 2.0 mi NNE 8.1 mph - N/A   Overcast
4:30 AM 31.6 °F 22.6 °F 30.2 °F 94% 30.06 in 2.0 mi North 11.5 mph 16.1 mph N/A   Overcast
4:50 AM 30.2 °F 22.6 °F 28.2 °F 92% 30.07 in 2.5 mi North 8.1 mph - N/A   Overcast
5:10 AM 30.0 °F 23.2 °F 28.4 °F 94% 30.08 in 2.0 mi North 6.9 mph - N/A   Overcast
5:30 AM 29.5 °F 21.8 °F 27.9 °F 94% 30.09 in 2.0 mi North 8.1 mph 16.1 mph N/A   Overcast
5:50 AM 28.6 °F 21.5 °F 26.4 °F 92% 30.11 in 2.0 mi NNE 6.9 mph - N/A   Overcast
6:10 AM 28.0 °F 21.7 °F 26.4 °F 94% 30.11 in 2.5 mi NNE 5.8 mph - N/A   Overcast
6:30 AM 27.5 °F 18.0 °F 25.3 °F 92% 30.12 in 2.5 mi North 10.4 mph 17.3 mph N/A   Overcast
6:50 AM 26.6 °F 17.5 °F 24.3 °F 91% 30.14 in 2.0 mi North 9.2 mph 20.7 mph N/A   Overcast
7:10 AM 26.4 °F 17.3 °F 23.9 °F 90% 30.15 in 1.8 mi North 9.2 mph - N/A   Overcast
7:30 AM 25.2 °F 14.4 °F 22.1 °F 88% 30.18 in 1.0 mi North 11.5 mph 20.7 mph N/A   Overcast
7:50 AM 23.9 °F 12.9 °F 21.7 °F 91% 30.20 in 0.8 mi North 11.5 mph 18.4 mph N/A   Overcast
8:05 AM 23.2 °F 12.0 °F 20.8 °F 91% 30.22 in 0.8 mi North 11.5 mph 18.4 mph N/A   Overcast
8:30 AM 21.6 °F 8.8 °F 18.5 °F 88% 30.22 in 1.2 mi North 13.8 mph 20.7 mph N/A   Overcast
8:50 AM 20.7 °F 8.8 °F 17.2 °F 87% 30.22 in 1.0 mi North 11.5 mph 21.9 mph N/A   Overcast
9:10 AM 19.2 °F 7.7 °F 15.8 °F 87% 30.23 in 0.8 mi North 10.4 mph 24.2 mph N/A   Overcast
9:30 AM 19.0 °F 4.5 °F 15.8 °F 87% 30.24 in 0.8 mi North 16.1 mph 20.7 mph N/A   Overcast
9:50 AM 18.5 °F 8.4 °F 14.7 °F 85% 30.25 in 0.8 mi North 8.1 mph - N/A   Overcast
10:10 AM 18.3 °F 5.9 °F 14.9 °F 86% 30.25 in 1.0 mi North 11.5 mph - N/A   Mostly Cloudy
10:30 AM 18.3 °F 9.1 °F 14.7 °F 86% 30.25 in 1.0 mi North 6.9 mph - N/A   Mostly Cloudy
10:50 AM 18.3 °F 8.2 °F 14.5 °F 85% 30.25 in 1.5 mi NNW 8.1 mph - N/A   Overcast
11:10 AM 18.9 °F 8.0 °F 12.2 °F 75% 30.25 in 10.0 mi North 9.2 mph - N/A   Overcast
11:30 AM 18.3 °F 6.6 °F 14.4 °F 85% 30.26 in 0.8 mi NNW 10.4 mph - N/A   Overcast
11:50 AM 18.5 °F 7.5 °F 14.7 °F 85% 30.26 in 1.0 mi NNW 9.2 mph - N/A   Overcast
12:10 PM 18.9 °F 12.1 °F 14.2 °F 82% 30.25 in 2.0 mi NNW 4.6 mph - N/A   Overcast
12:30 PM 18.5 °F 8.4 °F 12.4 °F 77% 30.26 in 1.2 mi NNW 8.1 mph - N/A   Overcast
12:50 PM 18.0 °F 6.9 °F 13.1 °F 81% 30.25 in 1.2 mi NNW 9.2 mph - N/A   Overcast
1:10 PM 18.1 °F 6.3 °F 13.8 °F 83% 30.25 in 0.8 mi NNW 10.4 mph - N/A   Overcast
1:30 PM 18.3 °F 10.2 °F 13.6 °F 82% 30.25 in 1.5 mi North 5.8 mph - N/A   Overcast
1:50 PM 19.4 °F 11.5 °F 10.9 °F 70% 30.23 in 10.0 mi North 5.8 mph - N/A   Overcast
2:10 PM 21.4 °F 9.7 °F 6.4 °F 53% 30.24 in 10.0 mi North 11.5 mph 17.3 mph N/A   Overcast
2:30 PM 22.1 °F 10.6 °F 3.6 °F 45% 30.24 in 10.0 mi North 11.5 mph 16.1 mph N/A   Overcast
2:50 PM 22.5 °F 11.7 °F 2.5 °F 42% 30.25 in 10.0 mi NNW 10.4 mph 18.4 mph N/A   Mostly Cloudy
3:10 PM 22.5 °F 11.1 °F 3.6 °F 44% 30.25 in 10.0 mi North 11.5 mph - N/A   Mostly Cloudy
3:30 PM 21.9 °F 11.0 °F 2.5 °F 43% 30.26 in 10.0 mi North 10.4 mph - N/A   Overcast
3:50 PM 22.3 °F 13.9 °F 3.2 °F 44% 30.27 in 10.0 mi North 6.9 mph 16.1 mph N/A   Overcast
4:10 PM 22.5 °F 11.7 °F 4.1 °F 45% 30.27 in 10.0 mi North 10.4 mph - N/A   Overcast
4:30 PM 22.6 °F 11.9 °F 3.4 °F 44% 30.27 in 10.0 mi North 10.4 mph 17.3 mph N/A   Overcast
4:50 PM 22.6 °F 12.6 °F 3.4 °F 44% 30.27 in 10.0 mi North 9.2 mph 18.4 mph N/A   Scattered Clouds
5:10 PM 22.5 °F 14.1 °F 4.1 °F 45% 30.27 in 10.0 mi North 6.9 mph - N/A   Clear
5:30 PM 22.1 °F 12.8 °F 3.9 °F 46% 30.28 in 10.0 mi North 8.1 mph - N/A   Clear
5:50 PM 21.7 °F 11.5 °F 3.2 °F 45% 30.29 in 10.0 mi North 9.2 mph - N/A   Clear
6:05 PM 21.6 °F 11.3 °F 3.4 °F 46% 30.30 in 10.0 mi North 9.2 mph 16.1 mph N/A   Clear
6:30 PM 20.7 °F 11.9 °F 2.7 °F 46% 30.32 in 10.0 mi NNW 6.9 mph - N/A   Clear
6:50 PM 20.1 °F 11.3 °F 2.3 °F 46% 30.33 in 10.0 mi North 6.9 mph - N/A   Clear
7:10 PM 19.4 °F 14.3 °F 2.3 °F 48% 30.34 in 10.0 mi North 3.5 mph - N/A   Clear
7:30 PM 18.9 °F 13.7 °F 2.8 °F 50% 30.34 in 10.0 mi North 3.5 mph - N/A   Clear
7:50 PM 18.1 °F 12.9 °F 4.3 °F 55% 30.34 in 10.0 mi NNW 3.5 mph - N/A   Clear
8:10 PM 18.1 °F - 3.9 °F 54% 30.35 in 10.0 mi Calm Calm - N/A   Clear
8:30 PM 17.6 °F 12.3 °F 4.5 °F 56% 30.35 in 10.0 mi NNW 3.5 mph - N/A   Clear
8:50 PM 14.2 °F - 8.4 °F 78% 30.35 in 10.0 mi Calm Calm - N/A   Clear
9:10 PM 13.1 °F - 8.4 °F 82% 30.36 in 10.0 mi Calm Calm - N/A   Clear
9:30 PM 11.1 °F - 8.6 °F 90% 30.37 in 10.0 mi Calm Calm - N/A   Clear
9:50 PM 11.1 °F - 8.8 °F 90% 30.37 in 10.0 mi Calm Calm - N/A   Clear
10:30 PM 10.2 °F - 8.1 °F 91% 30.37 in 10.0 mi Calm Calm - N/A   Clear
10:45 PM 10.4 °F - 8.4 °F 92% 30.37 in 7.0 mi Calm Calm - N/A   Clear
11:10 PM 9.9 °F - 7.5 °F 90% 30.36 in 7.0 mi Calm Calm - N/A   Clear
11:30 PM 9.5 °F - 7.2 °F 90% 30.35 in 10.0 mi Calm Calm - N/A   Clear
11:50 PM 9.1 °F - 6.8 °F 90% 30.35 in 7.0 mi Calm Calm - N/A   Clear